Location: Krakow
(50.0830°N, 19.9170°E)
Time: 06:37:38
(UTC+02:00)

A-11 Canister half - Pass Details

Date: 20 March 2026
Orbit: 1523 x 1684 km, 47.3° (Epoch: 18 April)

Event Time Altitude Azimuth Distance (km) Brightness Sun altitude
Rises 13:24:53 0° 286° (WNW) 4,822 11.8 35.8°
Reaches altitude 10° 13:28:09 10° 281° (W) 3,812 11.4 35.5°
Maximum altitude 13:37:12 48° 212° (SSW) 1,957 11.7 34.7°
Drops below altitude 10° 13:45:59 10° 141° (SE) 3,699 11.3 33.9°
Sets 13:49:08 0° 136° (SE) 4,670 11.6 33.6°
